Theta_e
301 301 301 302 303 302 302 301 301 301 302 302 302 303 303 302 302 302 304 303 302 302 303 305 305 305 306 307 309 311 313 314 318 321 324 323 324 325 326 329 330 330 333 332 334 336 341 338 338 338 342 344 344 342
301 301 302 303 302 302 302 303 303 303 302 302 302 302 302 302 302 302 303 304 303 303 303 305 305 305 307 307 307 308 310 310 313 320 320 322 329 331 332 331 330 331 331 331 333 336 341 338 341 339 338 340 343 342
301 302 302 301 301 302 302 301 301 301 301 302 302 302 301 302 303 303 302 303 303 302 304 305 307 307 307 306 306 307 308 309 311 314 317 320 327 330 336 336 339 331 331 337 342 340 338 335 335 335 337 339 341 342
302 301 301 301 301 301 301 301 301 301 301 302 301 301 301 302 302 302 303 303 303 303 305 305 306 307 308 307 307 306 308 313 311 310 315 320 324 327 332 333 332 328 328 341 342 338 336 334 332 333 335 338 341 343
301 301 301 301 301 301 302 301 301 301 301 301 301 301 302 302 302 302 303 303 303 303 306 306 306 310 310 307 308 306 306 309 311 310 316 321 320 323 327 332 328 325 328 340 342 336 337 334 332 332 332 333 335 336
301 301 301 301 301 301 300 300 300 300 300 300 300 300 302 301 301 303 305 304 303 304 304 307 308 311 313 311 309 310 308 309 309 313 314 318 318 319 325 331 323 324 328 332 337 334 330 327 325 326 326 326 327 328
301 301 301 300 300 300 300 300 301 301 301 300 300 300 300 300 301 304 305 305 303 302 302 306 310 312 314 314 311 312 312 312 312 313 314 320 319 319 325 324 322 326 331 332 330 328 327 325 322 323 322 321 321 322
300 300 300 301 301 300 300 301 302 302 301 301 301 301 301 301 301 303 306 306 302 302 302 306 309 311 314 314 314 313 314 314 314 313 317 320 319 321 321 320 322 323 322 323 326 327 323 322 320 317 320 321 320 321
301 301 301 301 301 301 302 303 303 304 304 303 304 304 304 305 306 307 306 305 304 303 302 302 307 317 312 314 314 314 314 316 315 316 319 319 319 320 321 322 321 320 320 318 319 319 318 317 319 322 321 318 323 322
301 302 303 303 303 303 303 303 304 305 305 306 307 308 309 309 307 307 306 305 302 303 301 306 309 317 315 314 315 315 315 319 320 320 317 316 318 316 321 320 319 318 316 316 315 316 318 322 322 319 319 320 323 324
302 302 302 303 304 304 304 304 304 305 307 308 309 309 309 307 309 309 311 309 306 307 304 307 313 317 314 317 315 315 318 320 322 319 319 314 317 317 320 320 317 317 317 317 317 316 315 316 320 323 323 323 324 326
302 302 303 303 304 304 305 305 305 307 308 306 306 306 308 311 311 312 314 314 314 315 315 316 317 316 316 316 319 318 320 321 322 320 319 314 317 317 319 321 321 322 322 322 321 321 322 322 323 321 325 324 324 325
302 303 303 303 303 305 306 306 307 306 307 308 309 310 309 312 316 314 313 315 316 315 315 316 319 319 318 317 319 321 321 322 320 320 318 315 317 318 319 320 321 322 323 323 323 323 324 324 324 324 324 325 325 325
302 302 302 303 303 305 307 307 307 308 310 310 310 315 313 314 315 314 315 316 314 315 316 317 318 319 319 320 321 321 321 322 321 320 319 316 315 317 320 321 321 320 320 320 320 321 321 321 323 324 324 324 324 325
302 302 303 303 304 304 307 308 309 311 311 310 311 316 315 314 314 314 315 316 316 316 317 318 319 318 320 320 322 321 321 321 320 320 318 316 317 320 321 320 320 320 320 320 319 319 319 319 320 319 320 322 323 323
301 305 305 303 304 304 306 309 312 313 313 314 313 314 313 315 315 315 316 316 317 318 319 319 319 318 320 321 321 321 321 321 319 319 319 319 321 321 320 320 320 320 319 319 319 319 319 319 319 320 319 319 319 319
301 307 303 304 304 304 308 312 313 312 312 311 311 311 313 314 315 315 315 316 316 317 319 319 320 321 319 320 319 318 322 316 316 319 320 321 321 321 321 321 320 320 320 319 318 319 320 319 319 318 319 319 319 319
303 303 302 305 304 307 312 311 312 310 311 311 312 312 312 314 315 315 315 316 316 317 317 319 318 319 319 318 319 320 318 320 320 320 320 320 320 320 320 320 320 320 320 320 320 318 318 319 318 317 317 318 319 318
303 303 305 306 304 310 311 311 312 311 311 311 311 312 314 314 314 314 315 315 315 316 317 317 317 319 319 318 319 319 319 320 320 319 319 320 320 320 320 320 320 320 319 317 317 317 318 318 317 316 316 316 316 316
307 307 307 305 307 311 311 311 311 310 311 311 312 313 315 315 315 316 316 316 316 316 316 316 317 317 317 318 318 318 318 319 320 319 319 319 319 317 317 316 316 316 316 315 314 314 314 314 314 314 314 315 315 315
311 309 307 308 310 310 310 310 312 310 311 312 313 314 315 315 315 315 315 315 316 316 316 317 318 318 319 319 319 319 319 318 318 318 318 318 318 317 316 315 315 314 314 313 313 313 312 312 311 311 312 312 312 312
310 308 310 310 311 311 312 312 312 312 313 313 315 314 314 315 315 314 314 315 314 314 313 315 314 313 313 314 314 313 314 315 315 315 316 317 318 316 315 314 313 313 312 311 310 310 309 309 308 307 307 308 308 309
310 310 312 313 313 312 313 314 314 313 315 315 315 316 316 317 317 315 315 315 314 315 315 315 314 313 312 312 312 311 310 311 312 312 312 312 312 312 311 311 310 309 309 308 308 307 307 306 306 306 307 306 306 307
310 312 314 315 316 316 316 316 316 316 315 316 317 318 317 316 316 314 316 316 315 313 313 312 312 312 312 311 310 309 308 309 310 311 310 309 310 310 311 310 309 308 307 306 306 306 306 306 305 306 306 306 306 305
313 313 315 316 317 318 318 319 318 318 318 318 318 319 318 318 317 316 316 312 311 311 311 311 311 311 310 309 308 307 306 306 307 308 307 307 307 307 307 307 307 307 306 305 304 303 304 304 305 305 305 305 304 304
317 317 317 318 319 319 319 320 320 320 319 319 318 318 318 319 318 315 312 309 309 309 309 309 309 309 308 307 306 305 304 303 304 305 305 305 305 305 304 304 304 304 303 302 302 303 303 303 303 304 304 304 303 303
320 320 319 316 317 318 319 318 318 319 319 319 319 317 318 317 313 308 307 306 307 307 307 306 306 306 306 305 304 303 302 301 302 302 302 303 303 302 302 301 301 300 300 301 302 302 302 302 302 302 302 302 302 301
320 321 321 319 319 318 319 318 318 318 318 318 318 317 316 314 310 306 306 306 307 307 307 307 305 304 304 302 301 301 300 299 299 299 300 301 300 299 298 298 298 297 298 298 298 299 299 299 298 298 298 298 298 298
321 321 320 320 320 319 319 318 317 316 315 316 316 315 312 309 309 308 308 307 306 306 305 304 303 302 301 300 300 299 298 297 297 297 297 297 297 296 296 295 296 296 296 296 296 296 295 295 295 295 296 297 297 296
321 321 321 320 320 319 317 317 316 314 313 312 311 309 309 308 307 308 308 307 306 306 305 304 302 300 299 298 298 297 297 296 295 294 293 293 294 293 293 294 294 294 294 294 294 294 294 294 294 294 294 294 294 293
319 319 320 320 320 317 316 316 315 313 313 312 311 311 311 310 310 310 307 306 305 304 303 302 301 299 297 297 296 296 295 295 294 292 290 291 291 291 292 292 292 292 292 293 293 293 293 292 292 292 292 292 292 292
319 319 319 320 319 317 316 317 315 316 314 313 313 313 313 313 312 310 306 304 303 302 301 300 299 298 297 296 295 295 294 294 293 291 289 289 290 290 291 291 291 292 292 292 292 292 292 291 291 291 291 291 291 291
317 316 316 316 317 318 319 319 318 316 315 315 314 313 312 311 310 308 306 304 303 301 300 299 298 298 297 296 295 294 294 293 292 291 290 289 289 290 290 291 291 291 291 291 291 291 291 291 291 290 290 290 290 291
Wind_Speed
32 30 29 29 27 24 22 19 17 15 14 11 11 11 10 12 13 14 16 16 17 9 24 28 28 28 24 22 8 11 10 2 6 7 9 11 11 14 18 20 27 24 22 19 20 23 11 6 5 11 4 4 9 10
27 24 24 24 22 20 19 16 13 11 11 10 12 11 10 11 10 13 16 11 16 21 19 22 28 28 24 23 22 16 11 5 4 4 4 5 5 7 13 15 24 24 22 17 19 21 12 15 5 4 3 3 6 10
22 21 21 20 18 17 18 16 14 11 13 10 8 9 9 8 8 12 15 13 11 11 24 27 23 22 24 29 30 23 17 13 4 9 4 2 7 4 2 9 19 18 23 18 10 9 10 16 13 11 8 7 3 3
20 20 19 18 19 17 18 16 13 12 11 10 11 11 8 9 9 9 12 10 11 8 6 20 15 7 7 13 22 27 18 5 4 11 4 3 4 6 3 5 4 5 21 12 14 17 18 18 17 16 15 11 10 8
20 19 17 16 19 18 17 16 15 15 14 12 9 7 8 10 9 10 14 13 14 11 8 21 23 16 15 18 17 22 24 19 4 4 3 2 5 6 4 3 2 3 7 3 10 18 18 17 17 17 16 14 13 17
19 18 16 16 16 17 17 18 18 16 14 12 8 8 8 10 12 12 3 6 8 11 5 4 11 9 10 10 19 17 19 15 7 3 4 6 2 5 4 1 7 15 9 13 5 28 28 23 21 16 14 15 13 14
19 18 17 16 17 18 17 18 19 19 15 11 10 9 9 10 10 9 7 5 6 11 3 4 4 9 8 15 17 15 14 13 9 7 6 5 1 3 2 3 12 12 4 8 24 27 21 13 15 17 18 13 11 12
20 20 19 17 17 19 18 18 20 20 17 13 12 12 12 11 12 12 5 8 12 6 4 3 4 7 3 17 14 14 10 8 10 4 4 2 2 5 2 7 9 19 30 30 24 25 22 18 19 23 19 13 11 11
20 21 20 20 19 18 18 19 21 21 16 13 12 10 7 4 5 6 13 4 4 5 2 3 3 3 5 2 10 9 5 4 3 2 1 2 2 0 3 6 15 19 17 24 30 26 22 23 20 14 16 24 15 9
18 18 19 19 20 21 22 24 23 20 11 11 7 4 4 2 9 14 2 3 5 4 4 3 7 2 9 16 4 4 4 3 2 2 5 4 1 8 14 21 26 31 30 28 38 29 20 12 10 19 20 14 13 7
16 18 21 24 26 29 26 24 23 22 12 9 6 4 11 12 5 5 4 6 4 2 5 6 7 5 7 4 3 3 3 3 2 1 2 3 1 5 17 17 21 26 28 28 31 31 27 18 15 7 5 2 0 7
18 20 23 26 32 32 26 23 21 14 11 10 9 9 9 4 4 3 3 1 1 3 4 6 10 3 4 6 4 6 2 3 4 4 3 3 1 8 12 9 13 12 15 15 14 11 9 7 8 6 2 2 4 4
21 23 23 26 34 30 23 19 18 15 7 5 6 5 6 7 4 6 7 3 4 8 5 12 9 1 3 11 6 2 3 4 9 3 3 2 9 6 8 9 8 8 13 16 17 13 11 9 9 7 7 6 6 5
22 24 22 29 35 27 22 20 17 9 6 4 6 4 4 4 4 4 7 5 7 8 16 15 11 3 2 3 4 1 5 2 5 4 4 3 2 4 6 10 14 13 14 15 16 13 14 12 10 10 9 9 10 9
23 23 22 31 31 23 21 18 17 9 5 4 4 5 6 9 19 18 11 6 0 10 9 11 6 3 7 4 4 5 5 5 6 4 3 6 3 4 14 14 15 16 13 13 14 14 13 12 12 12 11 10 10 9
25 16 20 29 27 19 20 13 12 7 3 4 3 10 17 17 18 23 23 21 19 14 8 3 3 4 4 3 7 8 4 5 3 2 6 6 11 13 14 14 14 13 12 11 11 11 11 11 9 9 9 9 10 10
20 14 26 28 26 13 18 10 6 5 5 4 8 17 18 18 18 20 21 22 20 18 8 5 6 6 5 5 5 5 4 3 5 4 7 11 11 10 10 12 12 10 9 11 10 8 8 8 9 10 8 5 6 9
18 22 24 26 24 12 8 9 5 6 7 11 12 16 16 17 20 22 20 19 15 15 15 8 12 9 5 3 3 5 11 7 7 8 9 10 11 11 10 11 10 9 10 10 9 8 9 8 8 9 7 5 3 5
21 21 21 20 19 8 6 6 6 6 10 12 15 14 14 16 18 18 19 18 16 16 19 11 7 5 5 8 12 13 13 10 6 7 13 13 12 12 12 12 12 11 11 11 11 11 12 10 11 9 10 10 11 11
13 12 14 12 13 4 4 4 6 5 7 9 13 12 20 23 20 23 26 24 19 19 11 5 5 16 17 16 16 15 15 14 13 12 15 12 12 14 15 13 12 9 10 11 14 14 12 12 12 12 10 9 10 13
7 10 7 10 5 6 5 6 5 5 6 8 12 9 15 17 21 24 25 23 20 10 10 14 19 19 17 17 18 18 18 16 14 11 9 7 11 9 10 9 9 10 10 11 10 10 10 10 11 11 11 11 9 11
8 9 6 7 6 4 5 8 4 5 4 6 13 11 6 9 13 16 17 17 10 14 13 17 19 21 24 24 24 23 18 15 16 16 16 15 13 13 12 12 11 11 10 11 12 11 12 12 13 14 13 12 12 11
8 7 5 6 4 5 3 7 5 5 4 5 5 4 4 4 7 9 5 10 9 11 12 11 14 18 19 19 22 24 24 21 18 17 17 14 11 11 10 9 9 10 11 12 12 12 13 13 13 13 12 12 12 11
9 4 4 5 6 3 3 5 3 3 4 3 3 3 3 4 6 7 4 7 8 13 17 19 18 16 16 19 22 23 23 21 18 17 16 16 15 12 9 9 10 10 11 12 14 15 15 15 14 14 13 14 13 14
4 5 4 4 3 4 3 3 4 3 2 2 2 3 3 3 3 4 3 15 20 20 20 18 17 17 18 18 19 21 22 21 20 18 17 16 15 14 14 13 12 13 14 14 17 17 17 16 15 14 15 14 14 15
2 3 4 8 4 5 5 5 5 4 2 3 3 4 4 0 4 4 4 14 14 15 18 20 19 18 18 19 21 21 22 20 18 17 16 15 14 15 15 15 16 16 16 17 18 17 17 17 17 17 16 14 13 14
3 4 3 2 3 3 2 1 2 4 4 4 3 3 4 4 5 4 7 8 9 11 14 15 17 17 18 19 18 17 18 18 18 17 14 13 11 13 15 17 18 19 18 17 15 16 17 16 16 16 15 13 13 14
4 5 5 4 3 4 5 7 5 6 5 5 4 4 3 4 4 4 3 6 10 8 11 13 13 12 14 16 15 16 16 18 17 16 12 9 11 14 16 15 16 17 16 16 16 15 15 15 17 17 17 17 17 16
4 4 3 2 2 3 7 6 9 13 18 8 3 4 5 12 11 9 7 7 6 9 11 12 14 15 16 15 14 14 14 17 19 19 18 17 18 19 18 18 17 17 17 16 18 16 14 17 17 16 15 15 16 16
9 8 6 7 9 5 11 10 12 13 13 11 13 19 15 11 7 6 7 8 8 10 14 14 14 16 17 16 15 14 14 15 17 18 18 18 18 18 17 18 17 17 17 16 16 15 16 17 16 15 15 15 16 16
7 9 8 9 6 9 9 9 11 12 11 11 9 9 7 6 5 7 9 12 13 13 13 13 13 14 15 15 15 14 14 14 14 16 16 14 14 15 16 16 16 17 17 16 16 16 17 17 17 16 16 16 15 15
5 3 5 6 4 6 7 2 3 3 5 3 2 2 2 3 3 5 10 15 15 15 13 12 13 12 13 13 13 13 13 12 11 14 16 15 14 13 13 15 16 18 18 17 16 16 16 16 16 16 16 15 15 15
3 8 9 7 2 4 4 6 4 3 2 1 3 2 4 9 7 8 9 15 12 12 12 11 10 10 11 12 14 14 13 10 13 15 20 20 17 16 14 14 16 18 19 18 15 15 15 15 16 16 16 16 16 16
Wind_Direction
330 328 329 329 328 327 323 318 312 312 309 299 298 300 288 284 266 252 265 261 236 237 263 269 274 275 279 283 258 277 299 201 275 228 231 233 245 234 249 227 209 206 203 216 217 230 217 30 207 214 143 311 346 322
338 337 338 342 343 345 344 338 329 322 317 297 302 299 294 289 275 259 261 254 270 242 258 274 272 265 255 254 273 268 261 288 296 290 22 306 275 299 241 241 222 207 208 209 216 224 102 134 107 98 34 355 342 315
348 354 354 354 357 360 2 355 343 330 328 320 310 313 304 298 293 284 266 274 261 266 280 269 269 268 244 240 233 250 255 251 226 343 319 250 269 302 231 255 304 193 205 216 147 120 115 96 82 77 76 71 10 324
349 344 350 354 354 352 350 349 353 352 344 331 315 311 301 304 297 290 271 281 257 267 282 289 275 281 251 234 217 216 224 154 38 346 273 253 271 359 304 315 285 10 324 179 111 122 108 100 95 88 82 83 95 72
348 349 350 349 348 352 356 358 349 344 340 330 327 313 312 311 307 283 273 265 255 242 299 304 298 289 247 219 209 210 220 239 307 327 279 264 296 334 311 228 290 32 271 269 127 150 106 104 95 95 96 90 81 82
8 5 359 354 1 6 7 358 352 347 339 335 321 312 312 324 336 323 258 218 249 258 292 299 320 279 283 199 195 195 208 218 202 273 290 269 243 308 289 357 2 303 288 299 35 108 107 103 93 96 93 76 76 88
3 1 0 1 6 0 358 358 355 353 345 331 321 315 309 301 307 286 288 299 296 317 250 287 276 284 221 164 168 171 181 193 195 219 233 275 310 284 347 304 327 348 2 79 102 112 110 100 87 77 75 71 75 69
5 4 358 356 355 358 360 0 354 347 338 323 315 305 300 293 284 291 317 283 240 238 234 269 285 296 166 144 140 166 160 179 209 227 245 271 356 10 293 311 87 67 67 68 81 94 101 94 85 85 59 46 55 56
5 6 7 8 9 8 1 354 347 344 338 333 322 309 298 262 243 280 318 316 201 215 262 222 231 176 225 241 133 119 134 200 191 224 248 346 37 336 253 76 89 73 76 88 86 86 81 75 69 72 83 17 10 20
8 10 8 9 1 353 346 340 341 349 357 10 3 262 251 257 289 301 281 193 213 214 232 261 255 12 184 198 107 135 161 212 204 65 108 41 29 340 45 77 97 98 89 86 74 53 63 65 65 57 62 33 326 346
5 3 359 356 352 345 339 336 337 342 359 344 316 284 296 291 271 231 242 199 158 253 222 249 295 358 37 66 92 202 200 156 136 113 69 41 356 320 41 99 109 107 104 97 96 95 86 94 89 68 154 220 353 53
353 352 354 355 355 352 350 347 342 344 322 309 311 311 327 286 263 317 272 209 235 1 313 295 316 293 215 202 229 191 53 197 77 154 78 31 38 25 46 52 80 134 146 146 149 140 159 160 177 156 158 91 70 74
349 348 349 357 358 353 354 354 352 346 359 359 359 331 354 346 347 344 350 354 339 349 326 338 330 56 261 187 231 59 66 52 135 51 76 317 79 46 38 50 62 86 120 122 117 104 100 107 109 111 99 110 109 92
346 346 348 360 358 351 352 356 7 31 31 14 356 357 355 356 331 276 301 324 282 286 327 326 320 313 356 55 75 4 187 64 60 32 60 77 89 353 19 117 94 83 84 85 86 92 102 89 77 85 81 76 78 70
340 344 353 359 351 350 353 359 16 31 9 41 13 358 356 324 298 275 294 24 302 315 299 314 270 337 34 12 7 12 62 48 28 52 103 207 285 66 83 73 70 79 73 75 84 84 82 88 90 82 70 72 82 79
338 356 338 348 353 350 355 2 11 353 23 15 357 0 6 6 1 0 359 4 357 323 290 264 5 44 30 9 20 17 39 43 43 78 111 117 88 83 85 81 75 73 74 72 68 76 73 78 72 73 71 69 65 59
342 333 339 347 354 358 12 20 4 10 22 1 3 13 6 5 3 1 1 1 352 12 14 26 24 20 49 31 27 3 42 136 178 106 74 75 71 71 74 72 72 66 59 68 76 69 61 57 68 59 59 63 74 61
322 327 339 344 353 12 6 14 9 24 24 17 8 15 1 5 11 13 9 16 16 10 37 55 43 38 69 31 35 41 49 57 74 87 74 61 50 49 56 61 63 54 59 58 29 38 51 12 23 62 64 35 220 115
319 326 338 345 354 27 4 15 8 4 32 31 10 12 8 14 19 19 22 27 36 42 48 47 44 35 44 43 35 28 33 39 50 95 86 61 47 46 49 59 62 66 68 61 44 38 56 45 32 16 20 18 18 40
326 333 349 358 19 10 2 23 5 3 12 355 14 9 27 22 21 25 33 32 48 56 58 46 55 40 33 33 35 39 41 45 55 50 46 45 50 61 54 52 49 59 65 59 50 39 36 31 26 20 16 7 359 4
17 337 9 35 20 32 27 0 37 18 339 356 6 30 37 39 42 33 38 45 47 32 41 38 36 35 45 45 43 44 44 42 41 41 39 25 17 42 45 51 52 49 42 35 28 26 14 5 357 351 344 340 336 328
339 7 32 7 20 20 34 17 10 354 329 22 26 50 10 20 32 30 42 45 41 39 44 41 49 54 53 48 43 38 33 32 32 29 37 36 29 26 28 25 25 26 27 19 8 359 348 343 340 342 340 338 332 326
13 22 3 8 16 31 28 21 42 24 11 15 22 34 30 39 36 6 56 52 52 45 42 51 60 55 51 45 40 36 27 21 28 26 17 16 27 16 13 16 16 13 3 359 351 350 347 348 348 354 351 347 343 336
17 18 12 12 14 22 14 46 44 25 49 27 29 8 83 71 56 38 40 56 54 54 46 38 37 32 35 31 30 23 18 14 11 13 11 4 359 360 356 360 358 352 354 353 353 350 346 345 344 346 347 344 347 344
344 18 9 340 2 337 25 40 42 62 49 25 337 73 67 72 73 55 51 360 21 29 23 23 28 27 23 18 16 14 10 9 5 359 2 1 358 354 352 350 347 4 357 346 343 340 338 336 335 335 334 334 336 334
34 40 8 356 19 357 357 357 12 7 348 340 27 4 15 309 85 56 30 0 20 23 25 18 11 11 14 9 3 3 0 0 359 359 0 359 1 2 359 356 349 345 344 339 334 332 333 330 326 325 326 330 340 337
15 33 39 4 356 336 273 345 329 321 349 7 9 45 325 56 51 26 18 23 22 26 22 17 21 12 3 359 357 356 357 359 357 350 343 351 1 1 358 352 350 344 343 337 335 336 331 333 335 335 333 331 325 326
352 352 0 23 10 10 8 12 19 15 12 23 3 16 44 58 58 120 43 16 30 20 358 346 1 7 358 355 356 356 356 359 359 1 5 7 4 359 355 351 346 347 347 350 349 340 343 334 330 323 320 318 317 314
327 4 349 347 44 352 25 40 26 21 4 26 37 39 71 72 89 76 39 355 5 40 21 12 8 2 360 0 2 4 4 7 7 8 6 0 356 352 347 346 344 344 343 340 338 342 346 341 334 325 318 317 320 321
1 357 8 27 34 62 46 52 38 32 46 72 105 107 103 109 111 69 44 25 4 4 1 0 1 1 1 3 4 6 7 5 9 8 0 355 349 345 350 351 350 349 346 344 342 340 342 341 339 341 343 340 339 337
1 12 31 45 52 86 91 74 65 69 80 98 102 113 134 150 116 59 27 8 359 358 360 360 2 4 6 8 6 2 359 3 359 2 0 1 353 355 359 355 355 354 354 354 352 351 350 349 348 346 347 348 344 342
31 49 39 82 70 110 133 61 63 61 107 131 114 164 197 182 114 28 10 8 6 7 7 4 5 8 6 7 5 359 357 351 353 0 5 4 3 3 10 2 4 1 358 354 352 352 353 353 352 352 350 348 345 342
10 32 13 18 79 121 145 173 176 169 189 209 161 133 52 60 76 30 2 357 355 354 355 355 355 358 358 360 357 358 357 348 348 352 3 17 24 28 23 6 7 4 0 356 351 351 353 354 352 352 351 347 346 343